This is the latest recevied weather packets stored in our database for station/object WC4PEM-10. If no packets are shown the sender has not sent any weather packets the latest 1 day(s).
| Time | Temp. | Humidity | Pressure | Rain* | Wind** | Luminosity | Snow |
|---|---|---|---|---|---|---|---|
| 1836274827 | 22.78° C | 92% | 1015.7 hPa | 0 mm | 1.34 m/s, 45° | - | - |
| 1836274608 | 22.78° C | 91% | 1015.9 hPa | 0 mm | 1.34 m/s, 59° | - | - |
| 1836274527 | 22.78° C | 91% | 1015.9 hPa | 0 mm | 1.34 m/s, 59° | - | - |
| 1836274377 | 22.78° C | 92% | 1015.9 hPa | 0 mm | 0.89 m/s, 51° | - | - |
| 1836274227 | 22.78° C | 92% | 1015.9 hPa | 0 mm | 0.89 m/s, 56° | - | - |
| 1836273927 | 22.78° C | 91% | 1016 hPa | 0 mm | 1.34 m/s, 72° | - | - |
| 1836273883 | 22.78° C | 91% | 1016 hPa | 0 mm | 1.34 m/s, 85° | - | - |
| 1778041286 | 18.89° C | 85% | 1016.1 hPa | 0 mm | 0.45 m/s, 59° | - | - |
| 1778040987 | 18.89° C | 85% | 1016.3 hPa | 0 mm | 0.89 m/s, 26° | - | - |
| 1778040951 | 18.89° C | 85% | 1016.1 hPa | 0 mm | 0.89 m/s, 76° | - | - |
| 1778040686 | 18.89° C | 85% | 1016.1 hPa | 0 mm | 0.89 m/s, 76° | - | - |
| 1778040386 | 18.89° C | 84% | 1015.9 hPa | 0 mm | 0.89 m/s, 85° | - | - |
| 1778040087 | 18.89° C | 83% | 1016.1 hPa | 0 mm | 0.89 m/s, 111° | - | - |
| 1778040003 | 19.44° C | 83% | 1016.4 hPa | 0 mm | 0.89 m/s, 76° | - | - |
| 1778039887 | 19.44° C | 83% | 1016.1 hPa | 0 mm | 0.89 m/s, 76° | - | - |
| 1778039787 | 19.44° C | 83% | 1016.4 hPa | 0 mm | 0.89 m/s, 76° | - | - |
| 1778039690 | 19.44° C | 83% | 1016.1 hPa | 0 mm | 0.89 m/s, 76° | - | - |
| 1778039487 | 19.44° C | 83% | 1016.1 hPa | 0 mm | 0.89 m/s, 76° | - | - |
| 1778039433 | 19.44° C | 82% | 1016.2 hPa | 0 mm | 0.89 m/s, 93° | - | - |
| 1778039237 | 19.44° C | 81% | 1016.4 hPa | 0 mm | 0.89 m/s, 93° | - | - |
| 1778039187 | 19.44° C | 82% | 1016.2 hPa | 0 mm | 0.89 m/s, 93° | - | - |
| 1778038971 | 20° C | 80% | 1016.4 hPa | 0 mm | 0.89 m/s, 102° | - | - |
| 1778038887 | 19.44° C | 81% | 1016.4 hPa | 0 mm | 0.89 m/s, 93° | - | - |
| 1778038628 | 20° C | 80% | 1016.4 hPa | 0 mm | 0.89 m/s, 93° | - | - |
| 1778038587 | 20° C | 80% | 1016.4 hPa | 0 mm | 0.89 m/s, 102° | - | - |
* Rain latest hour (hover to see other rain measurements)
** Current wind speed in m/s (hover to see current wind gust speed)